Simultaneous Nadir Overpasses (SNOs) Predictions

Prediction of SNOs between GOES-15 and TERRA Satellite Orbit:

Table of predicted SNOs for the next 14.0 days since TLE Epoch: 3/11/2023
Index Date Time (GOES-15) GOES-15 Lat,Lon TERRA Lat,Lon Distance(km) Time Diff (sec)
1 03/11/2023 18:38:37 -0.08,-127.75 -0.23,-126.99 86.31 80
2 03/12/2023 06:56:22 0.09,-127.73 -0.82,-131.94 479.37 80
3 03/14/2023 06:40:20 0.09,-127.66 -0.00,-128.07 46.56 80
4 03/16/2023 06:26:57 0.09,-127.59 0.80,-124.19 385.64 80
5 03/16/2023 18:44:33 -0.10,-127.57 0.22,-129.12 176.38 80
6 03/18/2023 18:31:09 -0.10,-127.48 -0.56,-125.23 255.70 80
7 03/19/2023 06:48:53 0.11,-127.46 -0.49,-130.19 310.47 80
8 03/21/2023 06:35:29 0.11,-127.38 0.35,-126.31 122.29 80
9 03/21/2023 18:53:04 -0.11,-127.36 0.72,-131.22 439.11 80
10 03/23/2023 18:39:39 -0.11,-127.28 -0.11,-127.34 6.59 80
